Location: Newport
(44.6370°N, 124.0520°W)
Time: 07:48:47
(UTC-07:00)

Vanguard 3 - Visible Passes

Search period start: 22 July 2018 00:00
Search period end: 01 August 2018 00:00
Orbit: 508 x 3264 km, 33.3° (Epoch: 21 July)

Date Brightness Start Highest point End Pass type
(mag) Time Alt. Az. Time Alt. Az. Time Alt. Az.
22 Jul 8.9 22:20:37 10° W 22:28:34 27° SSW 22:32:15 17° SSE visible
23 Jul 9.3 23:21:16 10° WSW 23:25:32 15° SW 23:27:01 14° SSW visible
24 Jul 9.2 22:03:39 10° W 22:12:25 27° SSW 22:17:14 14° SSE visible
25 Jul 9.5 23:04:43 10° WSW 23:09:17 15° SW 23:12:01 12° SSW visible
26 Jul 9.5 21:46:37 10° W 21:56:07 27° SW 22:02:15 10° SSE visible
27 Jul 9.8 22:48:07 10° WSW 22:52:57 14° SW 22:56:47 10° SSW visible
28 Jul 9.7 21:29:30 10° W 21:39:43 27° SW 21:46:27 10° SSE visible
29 Jul 10.0 22:31:32 10° WSW 22:36:29 14° SW 22:40:30 10° SSW visible
30 Jul 9.9 21:12:20 10° W 21:23:12 26° SW 21:30:29 10° SSE visible
31 Jul 10.3 22:14:59 10° WSW 22:19:54 13° SW 22:23:58 10° SSW visible
